{"data":{"norad_id":55271,"epoch":"2026-09-20T22:00:03.000096Z","epoch_age_seconds":56699,"freshness":"FRESH","line1":"1 55271U 23010C   26263.91670139  .00104589  00000+0  71211-2 0  9991","line2":"2 55271  69.9982 272.2462 0003790 231.6724 305.8445 15.05690495  5710","mean_motion":15.05690495,"eccentricity":0.000379,"inclination_deg":69.9982,"raan_deg":272.2462,"arg_perigee_deg":231.6724,"mean_anomaly_deg":305.8445,"bstar":0.0071211,"rev_number":571,"period_min":95.637184719028,"perigee_km":546.76141085109,"apogee_km":552.01247399945,"semimajor_km":6927.5239424253,"source":"CELESTRAK","updated_at":"2026-09-21T09:00:33.163813Z"}}